| time (UTC) | temp F | wind direction | speed MPH | gust MPH | rain 1hr in | rain 24hr in | rain mn in | humidity % | barometer mb |
| 20260901202600 | 68 | 15 | 2.0 | 8.0 | 0.00 | 0.00 | 0.00 | 29 | 1018.4 |
| 20260901202058 | 68 | 14 | 1.0 | 8.0 | 0.00 | 0.00 | 0.00 | 33 | 1018.4 |
| 20260901201603 | 67 | 16 | 2.0 | 7.0 | 0.00 | 0.00 | 0.00 | 30 | 1018.3 |
| 20260901201058 | 67 | 14 | 2.0 | 8.0 | 0.00 | 0.00 | 0.00 | 33 | 1018.4 |
| 20260901200557 | 67 | 15 | 2.0 | 9.0 | 0.00 | 0.00 | 0.00 | 30 | 1018.4 |
| 20260901200115 | 66 | 0 | 2.0 | 9.0 | 0.00 | 0.00 | 0.00 | 33 | 1018.3 |
| 20260901195557 | 66 | 9 | 2.0 | 10.0 | 0.00 | 0.00 | 0.00 | 31 | 1018.4 |
| 20260901195057 | 67 | 15 | 3.0 | 10.0 | 0.00 | 0.00 | 0.00 | 31 | 1018.5 |
| 20260901194605 | 67 | 15 | 3.0 | 10.0 | 0.00 | 0.00 | 0.00 | 30 | 1018.6 |
| 20260901194056 | 67 | 14 | 1.0 | 11.0 | 0.00 | 0.00 | 0.00 | 33 | 1018.7 |
| 20260901193558 | 67 | 15 | 3.0 | 11.0 | 0.00 | 0.00 | 0.00 | 28 | 1018.9 |
| 20260901193109 | 67 | 15 | 1.0 | 7.0 | 0.00 | 0.00 | 0.00 | 31 | 1018.9 |
| 20260901192558 | 67 | 15 | 3.0 | 8.0 | 0.00 | 0.00 | 0.00 | 30 | 1019.0 |
| 20260901192103 | 67 | 15 | 2.0 | 9.0 | 0.00 | 0.00 | 0.00 | 32 | 1019.0 |
| 20260901191608 | 66 | 15 | 2.0 | 9.0 | 0.00 | 0.00 | 0.00 | 33 | 1019.0 |
| 20260901191056 | 67 | 360 | 2.0 | 7.0 | 0.00 | 0.00 | 0.00 | 32 | 1019.2 |
| 20260901190557 | 67 | 15 | 2.0 | 7.0 | 0.00 | 0.00 | 0.00 | 31 | 1019.2 |
| 20260901190111 | 67 | 15 | 2.0 | 8.0 | 0.00 | 0.00 | 0.00 | 33 | 1019.2 |
| 20260901185557 | 66 | 15 | 2.0 | 8.0 | 0.00 | 0.00 | 0.00 | 31 | 1019.3 |
| 20260901185100 | 66 | 15 | 2.0 | 7.0 | 0.00 | 0.00 | 0.00 | 31 | 1019.2 |
| 20260901184610 | 65 | 15 | 1.0 | 5.0 | 0.00 | 0.00 | 0.00 | 34 | 1019.2 |
| 20260901184056 | 64 | 15 | 1.0 | 8.0 | 0.00 | 0.00 | 0.00 | 34 | 1019.1 |
| 20260901183556 | 64 | 15 | 2.0 | 8.0 | 0.00 | 0.00 | 0.00 | 31 | 1019.0 |
| 20260901183110 | 65 | 15 | 2.0 | 5.0 | 0.00 | 0.00 | 0.00 | 33 | 1019.0 |
| 20260901182557 | 64 | 16 | 1.0 | 9.0 | 0.00 | 0.00 | 0.00 | 37 | 1018.9 |
| 20260901182057 | 64 | 15 | 1.0 | 9.0 | 0.00 | 0.00 | 0.00 | 36 | 1019.0 |
| 20260901181605 | 64 | 16 | 2.0 | 7.0 | 0.00 | 0.00 | 0.00 | 32 | 1019.0 |
| 20260901181056 | 65 | 16 | 2.0 | 7.0 | 0.00 | 0.00 | 0.00 | 33 | 1018.9 |
| 20260901180558 | 65 | 0 | 0.0 | 5.0 | 0.00 | 0.00 | 0.00 | 34 | 1018.9 |
| 20260901180105 | 65 | 15 | 2.0 | 7.0 | 0.00 | 0.00 | 0.00 | 34 | 1018.9 |
| 20260901175556 | 64 | 0 | 2.0 | 7.0 | 0.00 | 0.00 | 0.00 | 33 | 1018.9 |
| 20260901175056 | 64 | 15 | 1.0 | 5.0 | 0.00 | 0.00 | 0.00 | 37 | 1018.9 |
| 20260901174605 | 64 | 16 | 1.0 | 5.0 | 0.00 | 0.00 | 0.00 | 36 | 1019.1 |
| 20260901174057 | 63 | 15 | 1.0 | 8.0 | 0.00 | 0.00 | 0.00 | 35 | 1018.9 |
| 20260901173557 | 62 | 15 | 1.0 | 8.0 | 0.00 | 0.00 | 0.00 | 35 | 1018.9 |
| 20260901173101 | 62 | 16 | 1.0 | 7.0 | 0.00 | 0.00 | 0.00 | 35 | 1018.9 |
| 20260901172559 | 62 | 10 | 3.0 | 7.0 | 0.00 | 0.00 | 0.00 | 35 | 1018.8 |
| 20260901172057 | 62 | 15 | 2.0 | 6.0 | 0.00 | 0.00 | 0.00 | 36 | 1018.6 |
| 20260901171604 | 61 | 13 | 0.0 | 7.0 | 0.00 | 0.00 | 0.00 | 39 | 1018.7 |
| 20260901171056 | 61 | 15 | 2.0 | 7.0 | 0.00 | 0.00 | 0.00 | 36 | 1018.7 |
| 20260901170557 | 61 | 15 | 2.0 | 5.0 | 0.00 | 0.00 | 0.00 | 37 | 1018.5 |
| 20260901170109 | 60 | 15 | 2.0 | 7.0 | 0.00 | 0.00 | 0.00 | 38 | 1018.6 |
| 20260901165557 | 60 | 15 | 1.0 | 7.0 | 0.00 | 0.00 | 0.00 | 39 | 1018.6 |
| 20260901165057 | 60 | 15 | 2.0 | 8.0 | 0.00 | 0.00 | 0.00 | 39 | 1018.6 |
| 20260901164607 | 59 | 15 | 2.0 | 8.0 | 0.00 | 0.00 | 0.00 | 39 | 1018.5 |
| 20260901164057 | 59 | 16 | 1.0 | 9.0 | 0.00 | 0.00 | 0.00 | 39 | 1018.7 |
| 20260901163557 | 59 | 5 | 2.0 | 9.0 | 0.00 | 0.00 | 0.00 | 39 | 1018.6 |
| 20260901163116 | 59 | 15 | 3.0 | 9.0 | 0.00 | 0.00 | 0.00 | 41 | 1018.6 |
| 20260901162559 | 58 | 15 | 3.0 | 9.0 | 0.00 | 0.00 | 0.00 | 41 | 1018.6 |
| 20260901162057 | 58 | 16 | 2.0 | 8.0 | 0.00 | 0.00 | 0.00 | 44 | 1018.4 |
| 20260901161627 | 57 | 15 | 1.0 | 7.0 | 0.00 | 0.00 | 0.00 | 46 | 1018.5 |
| 20260901161057 | 57 | 16 | 1.0 | 5.0 | 0.00 | 0.00 | 0.00 | 46 | 1018.6 |
| 20260901160558 | 57 | 0 | 1.0 | 4.0 | 0.00 | 0.00 | 0.00 | 44 | 1018.6 |
| 20260901160104 | 56 | 15 | 0.0 | 4.0 | 0.00 | 0.00 | 0.00 | 46 | 1018.5 |
| 20260901155556 | 56 | 0 | 1.0 | 4.0 | 0.00 | 0.00 | 0.00 | 46 | 1018.6 |
| 20260901155057 | 55 | 0 | 0.0 | 4.0 | 0.00 | 0.00 | 0.00 | 50 | 1018.7 |
| 20260901154620 | 54 | 0 | 0.0 | 3.0 | 0.00 | 0.00 | 0.00 | 49 | 1018.7 |
| 20260901154057 | 54 | 0 | 0.0 | 2.0 | 0.00 | 0.00 | 0.00 | 51 | 1018.6 |
| 20260901153602 | 53 | 11 | 0.0 | 2.0 | 0.00 | 0.00 | 0.00 | 55 | 1018.6 |
| 20260901153109 | 52 | 0 | 0.0 | 0.0 | 0.00 | 0.00 | 0.00 | 56 | 1018.5 |
| 20260901152557 | 52 | 0 | 0.0 | 0.0 | 0.00 | 0.00 | 0.00 | 54 | 1018.4 |
| 20260901152059 | 51 | 0 | 0.0 | 0.0 | 0.00 | 0.00 | 0.00 | 55 | 1018.5 |
| 20260901151607 | 51 | 0 | 0.0 | 0.0 | 0.00 | 0.00 | 0.00 | 55 | 1018.6 |
| 20260901151057 | 51 | 0 | 0.0 | 0.0 | 0.00 | 0.00 | 0.00 | 55 | 1018.6 |
| 20260901150557 | 51 | 0 | 0.0 | 0.0 | 0.00 | 0.00 | 0.00 | 55 | 1018.7 |
| 20260901150126 | 51 | 0 | 0.0 | 0.0 | 0.00 | 0.00 | 0.00 | 58 | 1018.6 |
| 20260901145557 | 51 | 0 | 0.0 | 0.0 | 0.00 | 0.00 | 0.00 | 56 | 1018.5 |
| 20260901145056 | 51 | 0 | 0.0 | 2.0 | 0.00 | 0.00 | 0.00 | 53 | 1018.5 |
| 20260901144606 | 51 | 0 | 0.0 | 3.0 | 0.00 | 0.00 | 0.00 | 56 | 1018.2 |
| 20260901144056 | 51 | 15 | 0.0 | 3.0 | 0.00 | 0.00 | 0.00 | 55 | 1018.2 |
| 20260901143557 | 51 | 0 | 0.0 | 1.0 | 0.00 | 0.00 | 0.00 | 52 | 1018.2 |
| 20260901143108 | 51 | 0 | 0.0 | 2.0 | 0.00 | 0.00 | 0.00 | 50 | 1018.2 |
| 20260901142556 | 51 | 0 | 0.0 | 2.0 | 0.00 | 0.00 | 0.00 | 51 | 1018.2 |
| 20260901142057 | 52 | 11 | 0.0 | 3.0 | 0.00 | 0.00 | 0.00 | 48 | 1018.2 |
| 20260901141605 | 53 | 0 | 0.0 | 3.0 | 0.00 | 0.00 | 0.00 | 45 | 1018.2 |
| 20260901141100 | 53 | 11 | 0.0 | 2.0 | 0.00 | 0.00 | 0.00 | 43 | 1018.2 |
| 20260901140557 | 54 | 0 | 0.0 | 3.0 | 0.00 | 0.00 | 0.00 | 44 | 1018.1 |
| 20260901140104 | 54 | 0 | 0.0 | 3.0 | 0.00 | 0.00 | 0.00 | 43 | 1018.0 |
| 20260901135601 | 54 | 0 | 0.0 | 3.0 | 0.00 | 0.00 | 0.00 | 40 | 1018.0 |
| 20260901135057 | 54 | 0 | 0.0 | 1.0 | 0.00 | 0.00 | 0.00 | 40 | 1018.0 |
| 20260901134604 | 54 | 0 | 0.0 | 3.0 | 0.00 | 0.00 | 0.00 | 40 | 1017.9 |
| 20260901134059 | 55 | 0 | 0.0 | 3.0 | 0.00 | 0.00 | 0.00 | 40 | 1017.8 |
| 20260901133556 | 55 | 0 | 0.0 | 3.0 | 0.00 | 0.00 | 0.00 | 38 | 1017.8 |
| 20260901133102 | 55 | 0 | 0.0 | 3.0 | 0.00 | 0.00 | 0.00 | 39 | 1017.8 |
| 20260901132559 | 55 | 15 | 0.0 | 4.0 | 0.00 | 0.00 | 0.00 | 37 | 1017.9 |
| 20260901132057 | 55 | 0 | 1.0 | 4.0 | 0.00 | 0.00 | 0.00 | 39 | 1018.0 |
| 20260901131602 | 55 | 16 | 1.0 | 4.0 | 0.00 | 0.00 | 0.00 | 36 | 1017.9 |
| 20260901131057 | 55 | 0 | 0.0 | 9.0 | 0.00 | 0.00 | 0.00 | 38 | 1017.8 |
| 20260901130557 | 56 | 0 | 0.0 | 9.0 | 0.00 | 0.00 | 0.00 | 37 | 1017.8 |
| 20260901130105 | 56 | 0 | 3.0 | 9.0 | 0.00 | 0.00 | 0.00 | 36 | 1018.0 |
| 20260901125556 | 55 | 0 | 1.0 | 7.0 | 0.00 | 0.00 | 0.00 | 38 | 1017.9 |
| 20260901125057 | 55 | 11 | 1.0 | 5.0 | 0.00 | 0.00 | 0.00 | 36 | 1018.1 |
| 20260901124604 | 55 | 16 | 1.0 | 5.0 | 0.00 | 0.00 | 0.00 | 38 | 1018.0 |
| 20260901124101 | 55 | 16 | 1.0 | 4.0 | 0.00 | 0.00 | 0.00 | 37 | 1018.0 |
| 20260901123556 | 56 | 16 | 0.0 | 5.0 | 0.00 | 0.00 | 0.00 | 37 | 1018.0 |
| 20260901123105 | 56 | 0 | 1.0 | 5.0 | 0.00 | 0.00 | 0.00 | 37 | 1017.8 |
| 20260901122558 | 56 | 15 | 2.0 | 5.0 | 0.00 | 0.00 | 0.00 | 35 | 1018.0 |
| 20260901122101 | 55 | 10 | 1.0 | 7.0 | 0.00 | 0.00 | 0.00 | 36 | 1017.8 |
| 20260901121613 | 55 | 0 | 1.0 | 7.0 | 0.00 | 0.00 | 0.00 | 37 | 1018.0 |
| 20260901121057 | 55 | 13 | 0.0 | 4.0 | 0.00 | 0.00 | 0.00 | 38 | 1018.0 |
| 20260901120557 | 55 | 9 | 0.0 | 7.0 | 0.00 | 0.00 | 0.00 | 38 | 1018.0 |
| 20260901120113 | 56 | 16 | 0.0 | 7.0 | 0.00 | 0.00 | 0.00 | 40 | 1018.0 |
| 20260901115557 | 56 | 13 | 0.0 | 3.0 | 0.00 | 0.00 | 0.00 | 37 | 1018.0 |
| 20260901115057 | 56 | 11 | 0.0 | 9.0 | 0.00 | 0.00 | 0.00 | 38 | 1018.0 |
| 20260901114612 | 56 | 0 | 0.0 | 9.0 | 0.00 | 0.00 | 0.00 | 38 | 1018.0 |
| 20260901114057 | 56 | 15 | 1.0 | 7.0 | 0.00 | 0.00 | 0.00 | 39 | 1018.0 |
| 20260901113556 | 56 | 15 | 1.0 | 7.0 | 0.00 | 0.00 | 0.00 | 42 | 1017.9 |
| 20260901113104 | 55 | 16 | 1.0 | 7.0 | 0.00 | 0.00 | 0.00 | 42 | 1017.9 |
| 20260901112556 | 55 | 9 | 0.0 | 1.0 | 0.00 | 0.00 | 0.00 | 42 | 1017.9 |
| 20260901112057 | 55 | 0 | 0.0 | 2.0 | 0.00 | 0.00 | 0.00 | 45 | 1017.8 |
| 20260901111610 | 56 | 0 | 0.0 | 4.0 | 0.00 | 0.00 | 0.00 | 44 | 1017.8 |
| 20260901111057 | 56 | 0 | 1.0 | 4.0 | 0.00 | 0.00 | 0.00 | 44 | 1017.9 |
| 20260901110557 | 56 | 0 | 0.0 | 3.0 | 0.00 | 0.00 | 0.00 | 46 | 1017.9 |
| 20260901105557 | 56 | 0 | 1.0 | 7.0 | 0.00 | 0.00 | 0.00 | 45 | 1017.9 |
| 20260901105057 | 56 | 0 | 0.0 | 3.0 | 0.00 | 0.00 | 0.00 | 45 | 1017.9 |
| 20260901104603 | 56 | 0 | 0.0 | 3.0 | 0.00 | 0.00 | 0.00 | 47 | 1018.0 |
| 20260901104057 | 56 | 0 | 0.0 | 3.0 | 0.00 | 0.00 | 0.00 | 45 | 1018.1 |
| 20260901103557 | 56 | 0 | 0.0 | 3.0 | 0.00 | 0.00 | 0.00 | 49 | 1018.1 |
| 20260901103107 | 56 | 0 | 1.0 | 3.0 | 0.00 | 0.00 | 0.00 | 45 | 1018.2 |
| 20260901102557 | 55 | 16 | 0.0 | 3.0 | 0.00 | 0.00 | 0.00 | 47 | 1018.2 |
| 20260901102057 | 55 | 0 | 0.0 | 3.0 | 0.00 | 0.00 | 0.00 | 47 | 1018.2 |
| 20260901101604 | 55 | 15 | 0.0 | 3.0 | 0.00 | 0.00 | 0.00 | 48 | 1018.0 |
| 20260901101057 | 55 | 0 | 1.0 | 3.0 | 0.00 | 0.00 | 0.00 | 47 | 1018.0 |
| 20260901100557 | 54 | 15 | 0.0 | 3.0 | 0.00 | 0.00 | 0.00 | 51 | 1018.1 |
| 20260901100109 | 54 | 0 | 0.0 | 3.0 | 0.00 | 0.00 | 0.00 | 49 | 1018.0 |
| 20260901095556 | 54 | 0 | 0.0 | 3.0 | 0.00 | 0.00 | 0.00 | 52 | 1018.1 |
| 20260901095057 | 54 | 5 | 0.0 | 3.0 | 0.00 | 0.00 | 0.00 | 48 | 1018.2 |
| 20260901094604 | 53 | 0 | 0.0 | 3.0 | 0.00 | 0.00 | 0.00 | 53 | 1018.2 |
| 20260901094056 | 53 | 0 | 0.0 | 3.0 | 0.00 | 0.00 | 0.00 | 48 | 1018.3 |
| 20260901093556 | 54 | 0 | 0.0 | 2.0 | 0.00 | 0.00 | 0.00 | 52 | 1018.3 |
| 20260901093105 | 53 | 0 | 0.0 | 2.0 | 0.00 | 0.00 | 0.00 | 50 | 1018.3 |
| 20260901092557 | 54 | 0 | 0.0 | 1.0 | 0.00 | 0.00 | 0.00 | 49 | 1018.2 |
| 20260901092057 | 53 | 0 | 0.0 | 3.0 | 0.00 | 0.00 | 0.00 | 49 | 1018.2 |
| 20260901091621 | 53 | 0 | 0.0 | 4.0 | 0.00 | 0.00 | 0.00 | 54 | 1018.3 |
| 20260901091056 | 52 | 11 | 1.0 | 4.0 | 0.00 | 0.00 | 0.00 | 46 | 1018.2 |
| 20260901090557 | 51 | 13 | 0.0 | 3.0 | 0.00 | 0.00 | 0.00 | 52 | 1018.2 |
| 20260901090107 | 51 | 11 | 0.0 | 3.0 | 0.00 | 0.00 | 0.00 | 57 | 1018.3 |
| 20260901085556 | 51 | 0 | 0.0 | 3.0 | 0.00 | 0.00 | 0.00 | 56 | 1018.2 |
| 20260901085057 | 51 | 11 | 0.0 | 3.0 | 0.00 | 0.00 | 0.00 | 56 | 1018.2 |
| 20260901084609 | 51 | 11 | 1.0 | 3.0 | 0.00 | 0.00 | 0.00 | 57 | 1018.3 |
| 20260901084057 | 51 | 0 | 1.0 | 3.0 | 0.00 | 0.00 | 0.00 | 56 | 1018.4 |
| 20260901083557 | 51 | 11 | 0.0 | 2.0 | 0.00 | 0.00 | 0.00 | 58 | 1018.3 |
| 20260901083108 | 51 | 11 | 0.0 | 3.0 | 0.00 | 0.00 | 0.00 | 59 | 1018.4 |
| 20260901082556 | 51 | 0 | 0.0 | 3.0 | 0.00 | 0.00 | 0.00 | 61 | 1018.4 |
| 20260901082057 | 51 | 11 | 0.0 | 3.0 | 0.00 | 0.00 | 0.00 | 59 | 1018.4 |
| 20260901081608 | 51 | 0 | 0.0 | 3.0 | 0.00 | 0.00 | 0.00 | 61 | 1018.4 |
| 20260901081053 | 50 | 0 | 0.0 | 2.0 | 0.00 | 0.00 | 0.00 | 57 | 1018.4 |
| 20260901080556 | 50 | 0 | 0.0 | 2.0 | 0.00 | 0.00 | 0.00 | 60 | 1018.5 |
| 20260901080107 | 50 | 11 | 0.0 | 2.0 | 0.00 | 0.00 | 0.00 | 62 | 1018.4 |
| 20260901075557 | 50 | 0 | 0.0 | 3.0 | 0.00 | 0.00 | 0.00 | 59 | 1018.4 |
| 20260901075057 | 50 | 11 | 0.0 | 3.0 | 0.00 | 0.00 | 0.00 | 62 | 1018.4 |
| 20260901074605 | 50 | 0 | 0.0 | 3.0 | 0.00 | 0.00 | 0.00 | 59 | 1018.4 |
| 20260901074056 | 50 | 0 | 0.0 | 2.0 | 0.00 | 0.00 | 0.00 | 61 | 1018.6 |
| 20260901073556 | 50 | 0 | 0.0 | 3.0 | 0.00 | 0.00 | 0.00 | 59 | 1018.5 |
| 20260901073108 | 51 | 0 | 0.0 | 3.0 | 0.00 | 0.00 | 0.00 | 61 | 1018.5 |
| 20260901072556 | 51 | 11 | 1.0 | 2.0 | 0.00 | 0.00 | 0.00 | 60 | 1018.5 |
| 20260901072057 | 51 | 0 | 0.0 | 3.0 | 0.00 | 0.00 | 0.00 | 59 | 1018.5 |
| 20260901071604 | 51 | 11 | 0.0 | 4.0 | 0.00 | 0.00 | 0.00 | 60 | 1018.6 |
| 20260901071056 | 51 | 0 | 1.0 | 4.0 | 0.00 | 0.00 | 0.00 | 61 | 1018.7 |
| 20260901070556 | 52 | 0 | 1.0 | 4.0 | 0.00 | 0.00 | 0.00 | 61 | 1018.5 |
| 20260901070109 | 51 | 0 | 0.0 | 4.0 | 0.00 | 0.00 | 0.00 | 61 | 1018.5 |
| 20260901065556 | 51 | 16 | 0.0 | 4.0 | 0.00 | 0.00 | 0.00 | 60 | 1018.6 |
| 20260901065057 | 51 | 0 | 0.0 | 3.0 | 0.00 | 0.00 | 0.00 | 64 | 1018.5 |
| 20260901064614 | 51 | 0 | 0.0 | 3.0 | 0.00 | 0.00 | 0.00 | 62 | 1018.6 |
| 20260901064057 | 51 | 0 | 0.0 | 3.0 | 0.00 | 0.00 | 0.00 | 65 | 1018.5 |
| 20260901063556 | 51 | 0 | 0.0 | 2.0 | 0.00 | 0.00 | 0.00 | 64 | 1018.7 |
| 20260901063102 | 51 | 10 | 0.0 | 2.0 | 0.00 | 0.00 | 0.00 | 63 | 1018.7 |
| 20260901062557 | 51 | 0 | 0.0 | 2.0 | 0.00 | 0.00 | 0.00 | 64 | 1018.8 |
| 20260901062100 | 51 | 10 | 0.0 | 2.0 | 0.00 | 0.00 | 0.00 | 65 | 1018.7 |
| 20260901061602 | 51 | 0 | 0.0 | 2.0 | 0.00 | 0.00 | 0.00 | 64 | 1018.7 |
| 20260901061057 | 52 | 0 | 0.0 | 2.0 | 0.00 | 0.00 | 0.00 | 65 | 1018.8 |
| 20260901060558 | 52 | 10 | 0.0 | 2.0 | 0.00 | 0.00 | 0.00 | 65 | 1018.8 |
| 20260901060107 | 52 | 0 | 0.0 | 2.0 | 0.00 | 0.00 | 0.00 | 66 | 1018.8 |
| 20260901055557 | 52 | 10 | 0.0 | 2.0 | 0.00 | 0.00 | 0.00 | 66 | 1018.8 |
| 20260901055057 | 52 | 11 | 0.0 | 3.0 | 0.00 | 0.00 | 0.00 | 66 | 1018.9 |
| 20260901054601 | 53 | 0 | 0.0 | 3.0 | 0.00 | 0.00 | 0.00 | 66 | 1018.9 |
| 20260901054059 | 53 | 0 | 0.0 | 3.0 | 0.00 | 0.00 | 0.00 | 67 | 1018.9 |
| 20260901053557 | 53 | 11 | 0.0 | 3.0 | 0.00 | 0.00 | 0.00 | 66 | 1019.0 |
| 20260901053208 | 53 | 0 | 0.0 | 2.0 | 0.00 | 0.00 | 0.00 | 67 | 1018.9 |
| 20260901052557 | 53 | 10 | 0.0 | 2.0 | 0.00 | 0.00 | 0.00 | 68 | 1019.0 |
| 20260901052056 | 53 | 0 | 0.0 | 1.0 | 0.00 | 0.00 | 0.00 | 68 | 1018.9 |
| 20260901051606 | 54 | 0 | 0.0 | 1.0 | 0.00 | 0.00 | 0.00 | 67 | 1019.1 |
| 20260901051057 | 54 | 0 | 0.0 | 1.0 | 0.00 | 0.00 | 0.00 | 67 | 1019.1 |
| 20260901050557 | 54 | 0 | 0.0 | 2.0 | 0.00 | 0.00 | 0.00 | 67 | 1019.0 |
| 20260901050108 | 54 | 0 | 0.0 | 2.0 | 0.00 | 0.00 | 0.00 | 67 | 1019.1 |
| 20260901045557 | 54 | 0 | 0.0 | 2.0 | 0.00 | 0.00 | 0.00 | 66 | 1019.0 |
| 20260901045056 | 54 | 11 | 0.0 | 2.0 | 0.00 | 0.00 | 0.00 | 66 | 1019.1 |
| 20260901044606 | 55 | 0 | 0.0 | 2.0 | 0.00 | 0.00 | 0.00 | 65 | 1019.1 |
| 20260901044057 | 55 | 0 | 0.0 | 2.0 | 0.00 | 0.00 | 0.00 | 65 | 1019.1 |
| 20260901043557 | 55 | 11 | 0.0 | 2.0 | 0.00 | 0.00 | 0.00 | 64 | 1019.1 |
| 20260901043105 | 55 | 0 | 0.0 | 2.0 | 0.00 | 0.00 | 0.00 | 65 | 1019.0 |
| 20260901042557 | 56 | 11 | 0.0 | 2.0 | 0.00 | 0.00 | 0.00 | 64 | 1019.0 |
| 20260901042057 | 56 | 0 | 0.0 | 2.0 | 0.00 | 0.00 | 0.00 | 63 | 1019.1 |
| 20260901041604 | 56 | 0 | 0.0 | 2.0 | 0.00 | 0.00 | 0.00 | 63 | 1019.0 |
| 20260901041057 | 57 | 11 | 0.0 | 2.0 | 0.00 | 0.00 | 0.00 | 62 | 1019.0 |
| 20260901040557 | 57 | 0 | 0.0 | 2.0 | 0.00 | 0.00 | 0.00 | 63 | 1019.0 |
| 20260901040106 | 57 | 0 | 0.0 | 2.0 | 0.00 | 0.00 | 0.00 | 61 | 1019.0 |
| 20260901035557 | 58 | 0 | 0.0 | 2.0 | 0.00 | 0.00 | 0.00 | 60 | 1018.9 |
| 20260901035056 | 58 | 0 | 1.0 | 2.0 | 0.00 | 0.00 | 0.00 | 60 | 1018.9 |
| 20260901034605 | 58 | 10 | 0.0 | 2.0 | 0.00 | 0.00 | 0.00 | 59 | 1018.8 |
| 20260901034056 | 59 | 11 | 0.0 | 3.0 | 0.00 | 0.00 | 0.00 | 59 | 1018.8 |
| 20260901033557 | 59 | 0 | 0.0 | 3.0 | 0.00 | 0.00 | 0.00 | 60 | 1018.7 |
| 20260901033104 | 60 | 0 | 0.0 | 3.0 | 0.00 | 0.00 | 0.00 | 60 | 1018.6 |
| 20260901032557 | 60 | 0 | 0.0 | 4.0 | 0.00 | 0.00 | 0.00 | 59 | 1018.5 |
| 20260901032056 | 60 | 14 | 0.0 | 4.0 | 0.00 | 0.00 | 0.00 | 58 | 1018.5 |
| 20260901031604 | 61 | 0 | 0.0 | 4.0 | 0.00 | 0.00 | 0.00 | 59 | 1018.5 |
| 20260901031057 | 61 | 0 | 0.0 | 2.0 | 0.00 | 0.00 | 0.00 | 59 | 1018.4 |
| 20260901030557 | 61 | 0 | 0.0 | 2.0 | 0.00 | 0.00 | 0.00 | 57 | 1018.5 |
| 20260901030108 | 62 | 0 | 0.0 | 2.0 | 0.00 | 0.00 | 0.00 | 56 | 1018.5 |
| 20260901025557 | 62 | 0 | 0.0 | 2.0 | 0.00 | 0.00 | 0.00 | 57 | 1018.6 |
| 20260901025057 | 62 | 0 | 0.0 | 7.0 | 0.00 | 0.00 | 0.00 | 55 | 1018.7 |
| 20260901024611 | 63 | 0 | 0.0 | 7.0 | 0.00 | 0.00 | 0.00 | 56 | 1018.5 |
| 20260901024057 | 63 | 11 | 0.0 | 2.0 | 0.00 | 0.00 | 0.00 | 55 | 1018.6 |
| 20260901023556 | 63 | 0 | 0.0 | 5.0 | 0.00 | 0.00 | 0.00 | 55 | 1018.6 |
| 20260901023109 | 63 | 0 | 0.0 | 5.0 | 0.00 | 0.00 | 0.00 | 54 | 1018.5 |
| 20260901022557 | 64 | 16 | 0.0 | 4.0 | 0.00 | 0.00 | 0.00 | 53 | 1018.4 |
| 20260901022057 | 64 | 0 | 1.0 | 4.0 | 0.00 | 0.00 | 0.00 | 53 | 1018.4 |
| 20260901021604 | 64 | 15 | 0.0 | 4.0 | 0.00 | 0.00 | 0.00 | 54 | 1018.4 |
| 20260901021056 | 64 | 15 | 1.0 | 4.0 | 0.00 | 0.00 | 0.00 | 53 | 1018.3 |
| 20260901020557 | 65 | 0 | 1.0 | 4.0 | 0.00 | 0.00 | 0.00 | 53 | 1018.2 |
| 20260901015559 | 65 | 15 | 1.0 | 5.0 | 0.00 | 0.00 | 0.00 | 53 | 1018.4 |
| 20260901015057 | 65 | 5 | 0.0 | 6.0 | 0.00 | 0.00 | 0.00 | 53 | 1018.3 |
| 20260901014606 | 66 | 15 | 1.0 | 7.0 | 0.00 | 0.00 | 0.00 | 51 | 1018.4 |
| 20260901014057 | 66 | 15 | 1.0 | 7.0 | 0.00 | 0.00 | 0.00 | 51 | 1018.2 |
| 20260901013557 | 66 | 15 | 2.0 | 7.0 | 0.00 | 0.00 | 0.00 | 52 | 1018.3 |
| 20260901013123 | 66 | 15 | 1.0 | 7.0 | 0.00 | 0.00 | 0.00 | 50 | 1018.4 |
| 20260901012556 | 67 | 15 | 1.0 | 7.0 | 0.00 | 0.00 | 0.00 | 50 | 1018.4 |
| 20260901012057 | 67 | 15 | 2.0 | 4.0 | 0.00 | 0.00 | 0.00 | 50 | 1018.4 |
| 20260901011610 | 67 | 15 | 1.0 | 7.0 | 0.00 | 0.00 | 0.00 | 51 | 1018.4 |
| 20260901011057 | 68 | 0 | 2.0 | 7.0 | 0.00 | 0.00 | 0.00 | 49 | 1018.3 |
| 20260901010557 | 68 | 15 | 2.0 | 7.0 | 0.00 | 0.00 | 0.00 | 50 | 1018.4 |
| 20260901010114 | 69 | 15 | 1.0 | 7.0 | 0.00 | 0.00 | 0.00 | 51 | 1018.6 |
| 20260901005556 | 69 | 15 | 1.0 | 7.0 | 0.00 | 0.00 | 0.00 | 50 | 1018.4 |
| 20260901005058 | 69 | 13 | 2.0 | 5.0 | 0.00 | 0.00 | 0.00 | 49 | 1018.4 |
| 20260901004615 | 70 | 14 | 1.0 | 8.0 | 0.00 | 0.00 | 0.00 | 46 | 1018.4 |
| 20260901004059 | 71 | 15 | 2.0 | 8.0 | 0.00 | 0.00 | 0.00 | 46 | 1018.4 |
| 20260901003557 | 72 | 15 | 1.0 | 7.0 | 0.00 | 0.00 | 0.00 | 45 | 1018.4 |
| 20260901003107 | 72 | 15 | 1.0 | 4.0 | 0.00 | 0.00 | 0.00 | 43 | 1018.4 |
| 20260901002557 | 72 | 15 | 1.0 | 5.0 | 0.00 | 0.00 | 0.00 | 44 | 1018.5 |
| 20260901002058 | 72 | 14 | 1.0 | 8.0 | 0.00 | 0.00 | 0.00 | 45 | 1018.5 |
| 20260901001605 | 72 | 15 | 2.0 | 8.0 | 0.00 | 0.00 | 0.00 | 43 | 1018.6 |
| 20260901001057 | 72 | 14 | 1.0 | 5.0 | 0.00 | 0.00 | 0.00 | 43 | 1018.6 |
| 20260901000556 | 72 | 15 | 1.0 | 9.0 | 0.00 | 0.00 | 0.00 | 42 | 1018.7 |
| 20260901000108 | 72 | 15 | 2.0 | 9.0 | 0.00 | 0.00 | 0.00 | 45 | 1018.5 |
| 20260831235557 | 73 | 14 | 2.0 | 9.0 | 0.00 | 0.00 | 0.00 | 41 | 1018.5 |
| 20260831235058 | 73 | 14 | 1.0 | 4.0 | 0.00 | 0.00 | 0.00 | 44 | 1018.6 |
| 20260831234634 | 73 | 15 | 1.0 | 8.0 | 0.00 | 0.00 | 0.00 | 42 | 1018.7 |
| 20260831234100 | 73 | 15 | 2.0 | 8.0 | 0.00 | 0.00 | 0.00 | 45 | 1018.7 |
| 20260831233558 | 73 | 13 | 2.0 | 8.0 | 0.00 | 0.00 | 0.00 | 42 | 1018.7 |
| 20260831233108 | 73 | 15 | 2.0 | 8.0 | 0.00 | 0.00 | 0.00 | 43 | 1018.7 |
| 20260831232557 | 73 | 15 | 2.0 | 5.0 | 0.00 | 0.00 | 0.00 | 41 | 1018.7 |
| 20260831232056 | 73 | 15 | 2.0 | 7.0 | 0.00 | 0.00 | 0.00 | 42 | 1018.7 |
| 20260831231609 | 73 | 14 | 3.0 | 7.0 | 0.00 | 0.00 | 0.00 | 41 | 1018.7 |
| 20260831231057 | 74 | 16 | 1.0 | 7.0 | 0.00 | 0.00 | 0.00 | 41 | 1018.6 |
| 20260831230557 | 74 | 15 | 2.0 | 7.0 | 0.00 | 0.00 | 0.00 | 41 | 1018.6 |
| 20260831230115 | 74 | 15 | 1.0 | 5.0 | 0.00 | 0.00 | 0.00 | 41 | 1018.6 |
| 20260831225556 | 74 | 15 | 2.0 | 10.0 | 0.00 | 0.00 | 0.00 | 40 | 1018.7 |
| 20260831225058 | 74 | 15 | 2.0 | 10.0 | 0.00 | 0.00 | 0.00 | 40 | 1018.7 |
| 20260831224605 | 75 | 15 | 1.0 | 8.0 | 0.00 | 0.00 | 0.00 | 42 | 1018.6 |
| 20260831224056 | 74 | 16 | 2.0 | 8.0 | 0.00 | 0.00 | 0.00 | 40 | 1018.8 |
| 20260831223558 | 74 | 14 | 1.0 | 8.0 | 0.00 | 0.00 | 0.00 | 37 | 1018.7 |
| 20260831223110 | 75 | 15 | 2.0 | 6.0 | 0.00 | 0.00 | 0.00 | 38 | 1018.7 |
| 20260831222557 | 75 | 15 | 1.0 | 7.0 | 0.00 | 0.00 | 0.00 | 38 | 1018.7 |
| 20260831222057 | 75 | 15 | 2.0 | 7.0 | 0.00 | 0.00 | 0.00 | 36 | 1018.9 |
| 20260831221601 | 75 | 15 | 2.0 | 5.0 | 0.00 | 0.00 | 0.00 | 35 | 1018.8 |
| 20260831221057 | 75 | 15 | 2.0 | 4.0 | 0.00 | 0.00 | 0.00 | 36 | 1018.9 |
| 20260831220557 | 75 | 15 | 1.0 | 7.0 | 0.00 | 0.00 | 0.00 | 34 | 1018.9 |
| 20260831220104 | 75 | 15 | 1.0 | 7.0 | 0.00 | 0.00 | 0.00 | 34 | 1019.0 |
| 20260831215557 | 74 | 13 | 2.0 | 7.0 | 0.00 | 0.00 | 0.00 | 36 | 1019.2 |
| 20260831215057 | 74 | 14 | 1.0 | 7.0 | 0.00 | 0.00 | 0.00 | 33 | 1019.1 |
| 20260831214623 | 75 | 15 | 1.0 | 5.0 | 0.00 | 0.00 | 0.00 | 35 | 1019.2 |
| 20260831214056 | 75 | 15 | 1.0 | 5.0 | 0.00 | 0.00 | 0.00 | 35 | 1019.3 |
| 20260831213557 | 74 | 15 | 1.0 | 8.0 | 0.00 | 0.00 | 0.00 | 33 | 1019.3 |
| 20260831213112 | 74 | 15 | 2.0 | 8.0 | 0.00 | 0.00 | 0.00 | 34 | 1019.5 |
| 20260831212601 | 74 | 15 | 2.0 | 4.0 | 0.00 | 0.00 | 0.00 | 33 | 1019.4 |
| 20260831212057 | 74 | 13 | 1.0 | 5.0 | 0.00 | 0.00 | 0.00 | 32 | 1019.4 |
| 20260831211605 | 73 | 15 | 1.0 | 5.0 | 0.00 | 0.00 | 0.00 | 33 | 1019.5 |
| 20260831211057 | 73 | 15 | 1.0 | 5.0 | 0.00 | 0.00 | 0.00 | 31 | 1019.5 |
| 20260831210556 | 74 | 13 | 2.0 | 5.0 | 0.00 | 0.00 | 0.00 | 31 | 1019.5 |
| 20260831210106 | 75 | 13 | 1.0 | 5.0 | 0.00 | 0.00 | 0.00 | 33 | 1019.5 |
| 20260831205557 | 75 | 360 | 1.0 | 5.0 | 0.00 | 0.00 | 0.00 | 35 | 1019.6 |
| 20260831205057 | 75 | 15 | 1.0 | 6.0 | 0.00 | 0.00 | 0.00 | 35 | 1019.6 |
| 20260831204609 | 74 | 15 | 1.0 | 7.0 | 0.00 | 0.00 | 0.00 | 37 | 1019.5 |
| 20260831204057 | 73 | 15 | 1.0 | 7.0 | 0.00 | 0.00 | 0.00 | 33 | 1019.7 |
| 20260831203559 | 74 | 15 | 1.0 | 5.0 | 0.00 | 0.00 | 0.00 | 34 | 1019.7 |
| 20260831203104 | 74 | 14 | 2.0 | 5.0 | 0.00 | 0.00 | 0.00 | 32 | 1019.7 |